Theta_e
330 331 333 333 334 334 334 334 337 343 346 346 347 346 343 344 343 342 340 339 337 335 334 333 333 332 331 331 331 331 329 328 322 327 329 330 329 329 329 330 327 328 328
329 330 332 334 334 336 336 337 341 345 347 347 347 343 343 343 342 340 338 335 334 334 333 333 332 331 331 332 331 330 329 329 327 324 325 329 329 329 327 329 328 328 328
329 329 332 335 336 338 341 342 344 345 346 346 345 343 343 343 341 337 334 334 334 334 333 333 332 331 331 331 331 330 329 329 328 328 326 326 328 328 325 328 329 328 329
333 336 338 339 342 343 343 344 344 345 345 344 343 343 344 341 339 335 334 333 334 333 332 331 331 331 331 331 330 330 329 329 327 327 327 327 327 327 328 325 325 326 328
341 341 342 344 344 345 347 346 346 345 344 343 344 343 341 338 336 334 333 333 333 332 331 331 331 331 330 329 326 328 329 328 326 325 325 325 326 326 326 324 323 325 325
344 343 344 345 345 346 345 345 344 343 343 343 343 339 335 334 334 332 332 332 332 331 331 331 329 328 326 325 327 327 328 327 326 324 324 325 325 325 325 323 323 324 322
343 342 341 342 341 340 342 341 340 342 343 341 338 334 333 334 333 331 331 331 332 332 330 328 325 325 324 325 325 326 326 327 327 326 326 326 325 326 324 323 323 323 321
341 340 340 339 338 338 339 339 340 339 338 336 334 333 333 334 332 331 332 332 331 330 329 325 325 324 326 326 325 327 326 326 327 326 326 326 326 326 327 324 323 322 321
340 339 339 338 336 335 334 334 334 335 334 333 333 332 332 331 332 332 332 332 330 329 327 325 325 326 326 326 326 326 326 326 327 326 324 325 325 326 326 324 322 321 319
339 338 337 337 335 334 334 333 333 333 332 331 330 330 330 331 332 332 332 331 329 329 328 327 326 326 326 326 326 325 325 325 324 324 323 323 324 324 325 325 324 321 320
337 337 336 335 335 334 333 333 333 332 331 329 328 327 328 328 328 330 331 330 329 327 327 326 327 327 326 326 326 326 325 324 323 323 322 323 323 324 324 324 323 324 321
327 335 333 333 333 333 334 332 332 331 329 327 326 324 325 326 327 330 331 330 329 328 326 325 327 327 327 327 326 326 325 324 322 320 320 321 322 321 322 323 323 322 322
332 333 332 333 333 333 331 330 330 331 329 326 324 322 322 325 329 330 330 329 327 326 325 325 325 326 327 327 326 325 324 322 320 319 320 320 320 321 321 321 321 321 321
333 333 333 332 331 331 331 331 330 329 329 328 326 323 323 323 327 329 330 328 326 326 325 324 325 327 327 326 323 322 321 321 320 319 319 320 320 320 320 320 321 321 321
334 333 332 331 331 331 330 330 331 331 331 329 326 325 323 323 327 329 329 326 326 326 325 323 324 324 323 320 320 320 320 319 319 319 319 319 320 320 320 320 320 321 322
334 332 332 329 326 325 326 326 331 331 331 331 331 330 327 327 327 327 327 326 326 325 322 322 322 322 320 320 321 320 320 319 319 319 319 319 319 319 319 319 319 320 322
333 331 329 327 326 324 324 325 320 326 330 330 330 330 329 326 327 326 325 325 323 321 321 322 323 322 321 322 322 321 320 319 319 319 319 319 319 319 319 319 319 320 320
333 330 329 327 327 326 325 325 324 323 322 325 329 329 328 327 326 325 324 323 321 322 322 323 323 323 323 323 323 322 321 320 320 320 319 319 319 319 319 319 319 319 319
330 330 329 328 327 326 326 325 325 325 322 321 323 326 327 326 325 325 324 323 321 322 322 323 324 324 324 324 324 324 323 322 321 320 320 320 319 319 320 320 321 320 320
331 331 330 327 326 325 325 323 322 320 320 321 321 323 325 326 323 321 322 323 322 321 322 322 323 324 324 325 324 323 323 322 321 321 320 320 320 320 320 320 320 322 320
331 330 329 328 327 325 324 322 321 321 321 320 320 320 323 323 321 322 323 323 322 321 321 321 322 323 324 324 324 324 324 323 323 322 322 321 321 321 321 321 320 321 322
331 329 329 329 328 326 325 324 321 321 320 318 317 319 321 321 322 323 323 324 324 324 322 322 322 322 323 323 324 324 324 324 324 323 323 323 322 322 322 321 322 322 322
331 330 330 329 328 326 325 324 322 321 319 319 317 317 319 321 322 323 324 325 325 325 324 322 322 322 322 323 323 323 323 323 323 324 325 323 324 324 323 322 321 321 321
330 331 330 329 327 326 325 324 323 323 322 319 318 318 319 322 321 321 321 320 322 323 323 322 321 321 321 321 322 323 323 324 325 326 325 325 326 326 326 325 325 325 325
329 330 329 328 327 326 326 325 323 323 322 320 319 317 317 317 316 314 314 315 315 315 313 314 314 315 317 318 320 322 323 323 323 324 324 324 324 326 326 326 324 321 320
327 327 328 328 329 327 326 325 323 322 321 319 318 314 312 309 308 308 307 308 308 307 307 308 308 309 310 311 313 319 322 323 322 323 322 322 321 319 320 318 317 314 311
Wind_Speed
34 34 38 41 36 29 26 26 31 29 27 30 29 27 25 25 22 20 18 16 15 14 13 11 10 10 9 11 11 10 11 10 3 2 2 4 9 9 10 8 9 10 12
36 38 34 28 24 24 25 30 33 28 28 32 31 28 28 26 23 21 19 16 16 16 14 11 11 10 10 10 10 11 11 12 7 5 4 6 6 9 9 5 8 8 9
34 30 28 27 24 27 30 30 28 29 30 32 32 31 29 27 26 21 18 18 17 15 13 13 12 11 11 11 11 13 12 12 13 10 6 6 5 10 11 5 7 8 8
27 28 26 27 29 30 29 29 30 28 31 33 32 31 28 27 24 21 19 16 16 14 12 12 11 12 11 10 10 11 11 11 12 17 13 10 9 11 14 14 11 11 12
22 26 27 31 31 30 28 28 26 29 33 31 33 29 27 24 23 22 18 17 17 16 13 12 12 11 9 9 10 10 12 13 16 18 13 8 9 11 15 11 14 14 14
18 22 29 30 29 29 28 27 30 30 32 33 32 29 26 23 23 19 19 20 18 16 13 11 11 10 7 6 7 9 11 15 19 14 8 12 12 13 15 18 20 12 4
22 22 24 27 27 28 31 31 31 34 34 33 29 25 22 23 21 20 19 19 19 17 13 13 12 10 7 8 8 7 9 6 13 22 21 19 16 22 22 20 18 17 6
19 22 25 27 27 29 33 32 32 33 33 30 26 24 24 23 21 18 18 16 17 14 12 12 11 9 7 8 10 11 11 11 9 15 15 22 23 24 23 22 22 19 13
17 22 25 28 29 29 31 32 33 32 30 27 25 22 22 17 20 19 16 17 14 12 11 11 11 9 9 10 11 15 16 13 12 8 9 14 18 23 24 23 23 23 7
15 24 26 30 30 29 32 33 32 30 28 25 22 21 20 20 18 17 17 15 14 12 11 11 10 8 9 10 9 16 19 14 12 10 9 13 16 20 22 23 28 20 14
8 24 26 29 35 36 33 32 29 26 24 23 22 18 17 17 17 15 14 14 16 16 13 10 7 8 12 9 8 16 18 17 15 13 14 15 15 20 22 20 24 28 22
29 25 28 30 31 33 32 29 29 28 27 24 21 16 14 14 14 15 13 12 12 15 14 10 9 10 11 14 12 12 14 16 16 14 16 16 17 20 21 19 21 22 21
18 21 30 31 32 32 31 28 26 27 23 17 16 14 15 14 14 15 14 11 10 10 11 10 10 10 13 13 11 12 14 14 16 17 15 15 17 19 18 16 17 15 11
13 21 28 29 26 30 31 30 27 23 19 17 16 14 15 15 13 15 16 13 12 11 12 11 13 11 15 13 14 15 12 10 14 15 15 14 13 13 16 16 17 15 12
14 22 22 26 24 24 22 20 25 26 28 21 18 19 19 16 18 17 18 16 14 14 14 15 14 14 16 20 16 12 10 10 11 11 12 12 12 13 15 15 17 16 10
12 21 23 21 19 23 24 18 20 21 22 22 21 22 20 13 17 17 14 13 13 14 14 16 14 16 19 17 17 14 11 12 11 12 11 12 12 13 15 15 16 16 7
13 20 22 21 21 20 18 19 14 11 17 17 17 14 14 15 18 17 15 13 10 14 12 15 14 17 19 19 18 17 16 12 12 12 13 12 12 12 12 11 11 15 10
16 28 27 23 24 21 21 21 20 17 13 13 15 15 14 16 20 19 17 15 16 12 13 16 16 19 20 21 18 16 13 13 12 12 12 13 13 14 12 11 11 11 11
20 21 22 23 22 22 23 22 22 20 17 18 16 15 15 18 17 16 17 15 15 12 13 14 16 18 21 20 19 17 15 16 14 13 12 12 14 16 13 12 11 13 12
18 22 29 24 23 21 21 20 17 16 16 15 14 21 21 20 18 20 16 10 9 9 10 12 14 15 18 20 17 15 13 13 13 13 13 13 12 15 17 16 14 14 17
19 24 24 24 20 21 20 19 16 16 14 13 14 20 20 18 16 16 9 8 8 9 9 9 10 13 14 16 15 13 12 11 12 11 13 14 15 16 15 15 17 16 17
22 27 24 22 21 21 20 21 19 16 14 13 14 17 15 13 15 14 7 6 5 6 7 9 10 10 11 11 13 12 11 12 11 12 13 14 16 17 18 19 18 18 19
23 22 21 21 23 22 21 22 20 18 16 15 17 19 13 14 14 10 9 9 9 8 8 9 11 11 10 8 10 11 10 8 9 10 11 14 15 13 15 17 17 19 20
20 23 23 22 25 23 23 22 21 22 22 18 18 20 15 14 14 13 12 12 13 13 14 14 13 11 9 7 6 6 7 9 9 11 11 13 14 14 14 15 16 15 16
20 25 25 25 25 22 25 23 22 24 24 21 18 19 18 19 18 16 15 16 17 18 18 16 14 12 9 7 5 4 4 4 3 2 3 6 8 8 9 10 8 8 7
20 21 23 25 22 24 26 24 21 21 22 26 26 21 22 21 21 21 21 21 23 23 22 21 19 18 17 15 12 9 6 4 4 4 6 7 10 11 11 11 10 7 6
Wind_Direction
217 211 206 213 215 214 216 215 212 209 202 198 191 188 185 184 185 183 185 191 204 204 207 206 211 215 213 218 219 227 226 208 150 210 207 169 148 147 152 164 149 162 176
213 213 210 208 209 211 213 213 208 200 200 195 188 186 182 181 178 181 189 196 201 201 203 206 214 214 213 213 219 227 227 214 188 173 159 150 176 177 174 125 146 159 165
206 204 204 205 202 205 205 201 199 197 194 187 186 182 182 178 177 185 194 195 198 201 204 214 217 216 215 220 227 232 226 222 207 181 149 157 131 179 176 160 129 138 150
190 188 182 190 192 194 194 195 194 192 185 184 183 182 180 178 184 189 192 191 196 199 210 218 219 220 221 219 215 224 219 205 199 172 142 149 135 150 167 141 121 130 129
164 163 168 176 184 186 185 184 183 183 180 180 178 177 176 181 189 187 188 186 190 195 204 216 219 223 224 218 218 213 210 199 174 155 146 152 150 146 146 145 137 141 138
154 153 161 170 172 174 172 172 174 172 175 176 172 172 177 185 186 191 194 193 195 195 198 201 200 197 197 208 224 222 224 193 177 171 156 160 166 165 163 157 147 138 102
148 148 151 152 153 155 157 158 161 166 168 168 169 175 182 186 190 192 196 199 196 198 200 202 196 198 216 226 216 202 203 181 211 196 182 179 169 182 176 167 164 157 128
147 148 151 148 141 138 142 144 155 162 166 166 171 178 184 190 190 192 200 204 195 198 205 203 204 212 221 221 207 184 188 202 214 205 221 202 203 191 192 174 168 150 151
159 154 154 145 139 143 142 152 159 162 164 167 173 181 186 184 185 190 191 183 190 195 198 206 216 228 222 203 201 193 197 201 201 211 219 215 206 194 189 174 154 143 138
183 164 157 146 146 144 154 155 158 161 164 169 170 173 171 165 169 179 185 186 187 188 205 212 224 220 205 199 201 191 177 181 175 171 169 183 191 198 197 196 180 155 143
246 158 152 150 148 155 157 159 160 163 161 158 153 157 165 173 174 179 185 191 194 194 193 202 213 184 185 185 180 176 173 162 161 155 162 167 177 183 190 196 187 190 168
319 160 143 145 148 156 156 157 158 159 151 151 147 148 163 169 173 175 179 198 193 187 184 193 176 171 180 178 170 169 163 162 157 161 163 170 179 186 191 196 195 195 202
275 147 135 144 151 154 151 148 149 155 145 141 142 146 160 165 167 172 172 176 178 187 181 183 176 174 171 171 174 172 166 160 155 159 160 166 184 194 191 183 193 197 189
191 132 136 141 144 150 155 159 155 153 147 155 155 151 158 168 168 170 172 173 171 172 165 164 162 168 174 166 159 162 158 162 164 163 163 177 184 185 179 180 176 181 181
168 133 136 143 143 138 141 155 165 174 175 162 167 166 165 176 182 173 174 174 176 172 162 158 159 154 158 156 160 159 155 153 164 173 175 176 177 178 175 181 178 165 170
157 140 142 139 141 147 149 144 165 175 186 191 189 185 184 189 176 173 177 179 177 176 166 167 167 161 155 158 159 160 163 165 171 175 179 179 175 182 185 185 187 187 171
179 145 138 142 143 148 151 148 132 152 178 188 189 190 186 164 165 170 168 168 173 162 166 172 169 162 159 166 175 174 171 176 175 180 187 188 192 185 177 181 192 197 205
185 152 149 151 150 154 156 153 153 149 140 151 174 180 179 170 166 167 167 160 157 173 178 171 170 164 165 173 184 180 177 174 181 184 189 195 196 191 186 196 197 200 221
167 149 144 149 153 156 159 156 155 147 139 145 147 160 162 162 166 170 171 171 168 171 178 182 181 178 179 186 189 190 185 184 184 187 193 195 197 194 199 201 215 224 228
165 156 152 147 148 151 151 142 134 132 135 140 143 147 150 156 159 164 171 169 167 173 175 182 189 188 193 193 190 190 186 188 193 198 200 202 203 206 214 220 220 217 225
160 152 145 146 148 149 146 144 140 141 142 141 142 156 159 160 153 162 164 172 172 166 171 180 187 194 200 194 184 188 192 199 205 209 216 220 220 221 226 232 233 232 239
154 154 152 149 146 148 148 155 151 147 146 137 137 153 150 154 160 161 157 163 148 149 163 171 171 181 188 186 193 191 200 206 215 224 225 223 224 228 231 234 236 237 245
164 156 147 147 148 152 148 157 159 150 135 129 140 150 142 146 150 149 149 147 148 146 140 149 156 153 159 168 186 208 217 224 230 243 242 236 237 243 230 233 239 246 254
167 155 148 147 148 148 150 153 160 155 149 133 139 149 145 149 142 137 137 132 134 132 134 138 143 144 153 163 170 189 220 234 238 242 243 243 238 231 226 233 238 247 256
172 156 151 145 147 149 148 155 154 152 151 143 133 139 141 141 137 132 131 126 124 120 113 112 115 119 119 122 132 151 154 153 157 188 221 222 224 217 216 220 199 166 140
151 148 142 145 152 154 151 146 140 139 135 140 147 140 138 134 128 126 125 125 122 117 114 108 104 102 100 97 100 121 146 148 136 120 123 129 126 120 127 128 132 118 92